Location: Tel Aviv
(32.0670°N, 34.7670°E)
Time: 12:26:13
(UTC+03:00)

Explorer 11/Cluster Stage 4 - Pass Details

Date: 13 September 2024
Orbit: 464 x 1208 km, 28.8° (Epoch: 05 October)

Event Time Altitude Azimuth Distance (km) Brightness Sun altitude
Rises 07:17:02 0° 233° (SW) 3,620 9.5 10.4°
Reaches altitude 10° 07:19:40 10° 226° (SW) 2,779 9.0 11.0°
Maximum altitude 07:26:09 42° 158° (SSE) 1,552 8.5 12.4°
Drops below altitude 10° 07:33:25 10° 92° (E) 3,123 12.8 13.9°
Sets 07:36:32 0° 85° (E) 4,109 12.1 14.6°
